This is the latest recevied weather packets stored in our database for station/object K0APR. If no packets are shown the sender has not sent any weather packets the latest 10 day(s).
| Time | Temp. | Humidity | Pressure | Rain* | Wind** | Luminosity | Snow |
|---|---|---|---|---|---|---|---|
| 1777489790 | 13.33° C | 38% | 1017.5 hPa | 0 mm | - | 406 W/m² | - |
| 1777489488 | 12.78° C | 40% | 1017.5 hPa | 0 mm | - | 287 W/m² | - |
| 1777489184 | 12.78° C | 40% | 1017.5 hPa | 0 mm | - | 244 W/m² | - |
| 1777488881 | 12.78° C | 39% | 1017.5 hPa | 0 mm | - | 279 W/m² | - |
| 1777488578 | 13.33° C | 40% | 1017.9 hPa | 0 mm | - | 234 W/m² | - |
| 1777488276 | 12.78° C | 38% | 1017.5 hPa | 0 mm | - | 275 W/m² | - |
| 1777487974 | 13.89° C | 36% | 1017.9 hPa | 0 mm | - | 333 W/m² | - |
| 1777487672 | 13.33° C | 39% | 1017.9 hPa | 0 mm | - | 317 W/m² | - |
| 1777487368 | 13.89° C | 39% | 1018.3 hPa | 0 mm | - | 810 W/m² | - |
| 1777487066 | 12.78° C | 43% | 1017.9 hPa | 0 mm | - | 756 W/m² | - |
| 1777486762 | 13.33° C | 40% | 1018.3 hPa | 0 mm | - | 713 W/m² | - |
| 1777486460 | 13.33° C | 43% | 1018.3 hPa | 0 mm | - | 690 W/m² | - |
| 1777486157 | 13.33° C | 45% | 1018.3 hPa | 0 mm | - | 354 W/m² | - |
| 1777485855 | 12.78° C | 41% | 1018.3 hPa | 0 mm | - | 705 W/m² | - |
| 1777485555 | 12.78° C | 42% | 1018.3 hPa | 0 mm | - | 747 W/m² | - |
| 1777485251 | 12.78° C | 42% | 1018.3 hPa | 0 mm | - | 729 W/m² | - |
| 1777484948 | 12.78° C | 42% | 1018.6 hPa | 0 mm | - | 697 W/m² | - |
| 1777484645 | 12.78° C | 43% | 1018.6 hPa | 0 mm | - | 683 W/m² | - |
| 1777484341 | 12.22° C | 42% | 1018.6 hPa | 0 mm | - | 727 W/m² | - |
| 1777484037 | 12.22° C | 41% | 1018.6 hPa | 0 mm | - | 717 W/m² | - |
| 1777483734 | 12.22° C | 43% | 1018.6 hPa | 0 mm | - | 753 W/m² | - |
| 1777483430 | 12.22° C | 40% | 1019 hPa | 0 mm | - | 402 W/m² | - |
| 1777483125 | 12.22° C | 39% | 1018.6 hPa | 0 mm | - | 717 W/m² | - |
| 1777482822 | 11.67° C | 41% | 1019 hPa | 0 mm | - | 682 W/m² | - |
| 1777482518 | 11.67° C | 45% | 1019 hPa | 0 mm | - | 688 W/m² | - |
* Rain latest hour (hover to see other rain measurements)
** Current wind speed in m/s (hover to see current wind gust speed)